Weather in Chazevo

Russia / Perm Krai     59°53′08″N   54°32′07″E
temp.,
°C
wind,
m/s
gust,
m/s
humid.,
%
clouds,
%
prec.,
mm/h
press.,
hPa
HPBL,
m
18 may, tue
tue1823:00+14wnw397447 0.0 1015371
02:00+13nw288756 0.0 1016323
05:00+11nnw279717 0.1 1018257
08:00+14n367740 0.0 1020571
11:00+17n345825 0.0 10211079
14:00+20nne34440 0.0 10211518
17:00+21ne34352 0.0 10211609
20:00+19ene24495 0.0 102299
19 may, wed
wed1923:00+13e226534 0.0 102314
02:00+11ese22745 0.0 102424
05:00+10sse228848 0.0 102435
08:00+14s2470100 0.0 1025241
11:00+19sse225263 0.0 1024971
14:00+22s234077 0.0 10231508
17:00+23s33369 0.0 10221555
20:00+21s24515 0.0 1022111
20 may, thu
thu2023:00+15s35685 0.0 102274
02:00+13ssw23730 0.0 102251
05:00+11ssw237112 0.0 102357
08:00+17ssw245573 0.0 1023240
11:00+22ssw233983 0.0 10221033
14:00+25ssw34285 0.0 10201641
17:00+26s33260 0.0 10191845
20:00+22sse25450 0.0 1018113
21 may, fri
fri2123:00+16s35590 0.0 101966
02:00+14s25650 0.0 101886
05:00+13ssw25750 0.0 101985
08:00+18ssw35580 0.0 1018274
11:00+23ssw47370 0.0 10181568
14:00+25ssw58295 0.0 10172591
17:00+26s59295 0.0 10153076
20:00+23s49407 0.0 1014551
22 may, sat
sat2223:00+20s512475 0.0 1014735
02:00+15s31179100 0.0 1014387
05:00+14s4118664 0.0 1013458
08:00+16sw5107558 0.1 10131038
11:00+18wsw6105296 0.4 10141897
14:00+19wsw6948100 0.1 10151926
17:00+17wsw61055100 0.2 10161833
20:00+15wsw510590 0.1 10171351